Regional Weather Roundup
Issued by NWS

Home | Current Version | Previous Version | Text Only | Print | Product List | Glossary On
Versions: 1 2 3 4 5 6 7 8 9 10 11 12 13 14 15 16 17 18 19 20 21 22 23 24 25 26 27 28 29 30 31 32 33 34 35 36 37 38 39 40 41 42 43 44 45 46 47 48 49 50
000
ASHW40 PHFO 231210
RWRHI

WEATHER ROUNDUP FOR HAWAII
NATIONAL WEATHER SERVICE HONOLULU HI
200 AM HST SAT MAY 23 2015

THIS IS AN AUTOMATED REPORT THAT HAS NOT BEEN QUALITY CONTROLLED.

NOTE..."FAIR" INDICATES FEW OR NO CLOUDS BELOW 12,000 FEET WITH NO
SIGNIFICANT WEATHER AND/OR OBSTRUCTIONS TO VISIBILITY.

* - THESE SITES REPORT LIMITED FIELDS

HIZ001>004-231300-
KAUAI-NIIHAU-

CITY           SKY/WX    TMP DP  RH WIND       PRES   REMARKS
LIHUE APT      MOCLDY    72  62  71 N13G21    30.05F
PORT ALLEN*    NOT AVBL
POIPU*           N/A     72 N/A N/A N6G16       N/A
PRINCEVILLE*     N/A     72 N/A N/A MISG        N/A
KOKOLE POINT*  NOT AVBL
MOLOAA DAIRY*  NOT AVBL
WAIMEA HTS*    NOT AVBL
PUU OPAE*      NOT AVBL
PUU LUA*       NOT AVBL
MAKAHA RIDGE*  NOT AVBL
$$

HIZ005>011-231300-
OAHU-

CITY           SKY/WX    TMP DP  RH WIND       PRES   REMARKS
HONOLULU       CLOUDY    73  64  73 N7        30.01F
KALAELOA       MOCLDY    71  63  75 VRB6      30.02F
KANEOHE MCB    CLOUDY    74  65  73 NE16      30.00F
WHEELER FIELD  MOCLDY    68  64  88 NW8       30.02F
BELLOWS*       NOT AVBL
KAHUKU*        NOT AVBL
WHEELER*       NOT AVBL
WAIANAE HARBOR NOT AVBL
DILLINGHAM*      N/A     70  64  83 MISG        N/A
KAHUKU TRN*      N/A     82  75  78 NE3G15      N/A
KAWAILOA*        N/A     64  63  94 N9G18       N/A
KII*             N/A     72  66  83 VRB10G18    N/A
MAKUA RANGE*     N/A     70  64  83 E12G25      N/A
OAHU FOREST NW NOT AVBL
SCHOFIELD BRK*   N/A     66  64  94 MISG        N/A
SCHOFIELD S*   NOT AVBL
WAIANAE VLY*   NOT AVBL
KUAOKALA*      NOT AVBL
HONOULIUULI*   NOT AVBL
MOKUOLOE IS*   NOT AVBL
PALEHUA*       NOT AVBL
WAIAWA PHB*    NOT AVBL
$$

HIZ012>013-231300-
MOLOKAI-

CITY           SKY/WX    TMP DP  RH WIND       PRES   REMARKS
MOLOKAI AIRPT  CLOUDY    71  64  78 N10       30.02F
KALAUPAPA      NOT AVBL
MAKAPULAPAI*   NOT AVBL
MOLOKAI 1*     NOT AVBL
PUU ALII*      NOT AVBL
$$

HIZ016-231300-
KAHOOLAWE-

CITY           SKY/WX    TMP DP  RH WIND       PRES   REMARKS
KAHOOLAWE*     NOT AVBL
HAKIOAWA*      NOT AVBL
HONOKANAIA*      N/A     74  67  80 N10G17    30.01F
KANELOA*         N/A     72  68  88 NE12G18   30.07F
KEALIALALO*    NOT AVBL
LUA MAKIKA*    NOT AVBL
$$

HIZ014>015-231300-
LANAI-

CITY           SKY/WX    TMP DP  RH WIND       PRES   REMARKS
LANAI CITY     CLOUDY    66  64  93 NE13      30.05F
LANAI 1*       NOT AVBL
$$

HIZ017>028-231300-
MAUI-

CITY           SKY/WX    TMP DP  RH WIND       PRES   REMARKS
KAHULUI        CLOUDY    69  68  96 SE3       30.01F
KAPALUA-W MAUI NOT AVBL
HANA AIRPORT   LGT RAIN  68  66  94 W5        30.04S
HANA*          NOT AVBL
HALEAKALA SUMM   N/A     43  43 100 NE8         N/A
MAALAEA BAY*   NOT AVBL
HALEAKALA*     NOT AVBL
KAUPO GAP*     NOT AVBL
KULA 1*          N/A     51  51 100 NW2         N/A
$$

HIZ023>026-231300-
BIG ISLAND OF HAWAII COAST AND LOWER SLOPES-

CITY           SKY/WX    TMP DP  RH WIND       PRES   REMARKS
KAILUA KONA    CLOUDY    75  67  76 SE6       29.98F
HILO           PTCLDY    70  63  78 SW5       29.99F
HONOKAA*       NOT AVBL
KAWAIHAE MWT*  NOT AVBL
KAWAIHAE*        N/A     73 N/A N/A NE3         N/A
SOUTH POINT*   NOT AVBL
UPOLU AIRPORT* NOT AVBL
KAMUELA*       MOSUNNY   55  54  94 E7        30.09S
HAKALAU*         N/A     48  48 100 SW3         N/A
KALOKO-HONOKO* NOT AVBL
PALI 2*          N/A     72  66  83 NE2         N/A
KEALAKOMO*       N/A     73  55  53 N3          N/A
KAUPULEHU*     NOT AVBL
KAPAPALA*        N/A     64  62  92 VRB3        N/A
LOWER KAHUKU*  NOT AVBL
PUHE CS*       NOT AVBL
PUHO CS*       NOT AVBL
PTA KEAMUKU*     N/A     61  55  82 CALM        N/A
WAIKOLOA*      NOT AVBL
$$

HIZ027>028-231300-
BIG ISLAND OF HAWAII INTERIOR AND SUMMMITS-

CITY           SKY/WX    TMP DP  RH WIND       PRES   REMARKS
BRADSHAW FIELD CLOUDY    44  42  93 SE2       30.28F
MK VISITOR CEN NOT AVBL
MAUNA KEA*       N/A     32  14  47 NW41        N/A  WCI  16
MAUNA LOA*       N/A     43   1  17 MISG        N/A
MAUNA LOA 1*   NOT AVBL
PTA KIPUKA*      N/A     50  50 100 E3          N/A
PTA RANGE 17*    N/A     48  46  93 SE1         N/A
PTA WEST*        N/A     66  63  88 SE7         N/A
NENE CABIN*    NOT AVBL
AHUMOA*        NOT AVBL
PTA PORTABLE*  NOT AVBL
PUU MALI*        N/A     48  46  93 SW8         N/A
$$

HIC003-231300-
NORTHWEST ISLANDS-

CITY           SKY/WX    TMP DP  RH WIND       PRES   REMARKS
MIDWAY ISLAND  CLEAR    N/A N/A N/A E15       30.26S
MIDWAY NOS*    NOT AVBL
FRENCH FRIGATE NOT AVBL
$$

PHZ110>124-180-231300-
BUOY REPORTS

STATION/POSITION TIME  TEMP    WIND        PRES    WAVE   SWELL
                       AIR SEA DIR/SP/G            HT/PER HT/DIR
                 (UTC) (F)     (DEG/KT/KT) (MB)    (FT/S) (FT/D)
BUOY 51001       NOT AVBL
BUOY 51101       1200   72 76   60/ 16/ 21 1018.9F   8/ 8   5/360
BUOY 51100       NOT AVBL
BUOY 51002       1200   77 79   60/  6/  8 1015.3F   5/14   5/180
BUOY 51003       1100   78 80   40/  8/ 10 1016.4F   5/ 9   5
BUOY 51004       1113   76 78  100/  4/  6 1015.0F   4/ 8   5/110
BARBERS PT BUOY  NOT AVBL
WAIMEA BAY BUOY  1200      78                N/A     7/ 9
KAILUA BAY BUOY  1200      78                N/A     5/ 9   2/360
LANAI BUOY       NOT AVBL
BARBERS PT 2     1200      77                N/A     4/13   3/190
PAUWELA MAUI     1200      77                N/A     5/ 9
HILO             1200      77                N/A     4/ 8   2/100
KANEOHE BAY BUOY 1200      77                N/A     5/ 9   2/360
HANALEI KAUAI    1200      78                N/A     7/11   3/320
KAHULUI HARBOR   1200   70 78  160/  5/  6 1016.2S
HONOLULU HARBOR  1200   73 78  350/  3/  5 1016.3F
KILO NALU        NOT AVBL
HILO HARBOR      1200   72 77  200/  2/  3 1015.3F
MOKUOLOE         1200   75 79   30/  9/ 11 1016.8S
NAWILIWILI       1200   68 79  280/  7/  8 1017.2F
WHOTS BUOY       NOT AVBL
BUOY 51028       NOT AVBL
$$

......................KEY........................................
  SKY/WX - SKY CONDITIONS/PRESENT WEATHER
  TMP    - TEMPERATURE IN FAHRENHEIT
  DWPT   - DEWPOINT IN FAHRENHEIT
  RH     - RELATIVE HUMIDITY IN PERCENT
  WIND   - DIRECTION AND SPEED /MPH FOR ISLANDS...KTS FOR BUOYS/
  PRES   - MEAN SEA LEVEL PRESSURE IN INCHES OF HG
  VSB    - VISIBILITY IN MILES
  HX     - HEAT INDEX
  WCI    - WIND CHILL INDEX
  VRB    - VARIABLE WIND DIRECTION
  N/A    - NOT AVAILABLE



USA.gov is the U.S. government's official web portal to all federal, state and local government web resources and services.